Probability
0 0 0 0 0 0 0 0 0 0 0 0 0 0 2 5 5 6 9 11 12 10 7 6 6 5 4 4 6 7 7 7 9 12 12 11 8 6 4 2 0 0 0 0
0 0 0 0 0 0 0 0 0 0 0 1 1 1 3 5 6 7 9 11 11 10 8 6 5 4 3 3 4 5 5 5 8 10 10 9 7 6 4 1 0 0 0 0
0 0 0 0 0 0 0 0 0 1 1 2 2 2 3 4 5 5 6 8 9 9 8 7 5 4 3 3 3 4 3 4 6 7 6 5 5 4 3 1 0 0 0 0
0 0 0 0 0 0 0 0 0 1 2 2 2 2 2 2 2 3 3 4 5 7 7 6 6 5 4 4 3 3 3 3 3 3 3 3 3 3 3 2 1 0 0 0
0 0 0 0 0 0 0 0 0 1 1 1 1 1 1 0 0 1 1 1 2 5 5 5 6 6 6 6 5 4 3 2 1 1 2 3 3 3 3 2 1 0 0 0
0 0 0 0 0 0 0 0 0 0 0 0 0 0 0 0 0 0 0 0 1 3 3 4 5 6 7 7 6 4 3 2 1 0 1 2 3 3 3 3 1 0 0 0
0 0 0 0 0 0 0 0 0 0 0 0 0 0 0 0 0 0 0 0 1 3 3 3 4 5 5 5 4 3 2 1 1 0 0 1 2 3 3 3 2 1 0 0
0 0 0 0 0 0 0 0 0 0 0 0 0 0 0 0 0 0 0 0 2 3 3 3 4 3 3 2 2 1 0 1 1 0 0 0 1 2 3 3 3 2 1 0
0 0 0 0 0 0 0 0 0 0 0 0 0 0 0 0 0 0 0 0 1 2 2 3 3 3 2 1 0 0 0 0 0 0 0 0 0 1 2 3 3 3 2 1
0 0 0 0 0 0 0 0 0 0 0 0 0 0 0 0 0 0 0 0 0 1 1 1 2 1 1 0 0 0 0 0 0 0 0 0 0 0 1 3 3 3 3 3
0 0 0 0 0 0 0 0 0 0 0 0 0 0 0 0 0 0 0 0 0 0 0 0 0 0 0 0 0 0 0 0 0 0 0 0 0 0 1 2 3 3 3 3
0 0 0 0 0 0 0 0 0 0 0 0 0 0 0 0 0 0 0 0 0 0 0 0 0 0 0 0 0 0 0 0 0 0 0 0 0 0 0 1 2 2 2 2
0 0 0 0 0 0 0 0 0 0 0 0 0 0 0 0 0 0 0 0 0 0 0 1 0 0 0 0 0 0 0 0 0 0 0 0 0 0 0 0 1 1 1 1
0 0 0 0 0 0 0 0 0 0 0 0 0 0 0 0 0 0 0 0 0 0 0 0 0 0 0 0 0 0 0 0 0 0 0 0 0 0 0 0 1 1 1 0
0 0 0 0 0 0 0 0 0 0 0 0 0 0 0 0 0 0 0 0 0 0 0 0 0 0 0 0 0 0 0 0 0 0 0 0 0 0 0 0 1 2 2 1
0 0 0 0 0 0 0 0 0 0 0 0 0 0 0 0 0 0 0 0 0 0 0 0 0 0 0 0 0 0 0 0 0 0 0 0 0 0 0 0 1 2 3 3
0 0 0 0 0 0 0 0 0 0 0 0 0 0 0 0 0 0 0 0 0 0 0 0 0 0 0 0 0 0 0 0 0 0 0 0 0 0 0 0 1 2 3 3
0 0 0 0 0 0 0 0 0 0 0 0 0 0 0 0 0 0 0 0 0 0 0 0 0 0 0 0 0 0 0 0 0 0 0 0 0 0 0 0 0 2 3 3
0 0 0 0 0 0 0 0 0 0 0 0 0 0 0 0 0 0 0 0 0 0 0 0 0 0 0 0 0 0 0 0 0 0 0 0 0 0 0 0 1 2 3 3
0 0 0 0 0 0 0 0 0 0 0 0 0 0 0 0 0 0 0 0 0 0 0 0 0 0 0 0 0 0 0 0 0 0 0 0 0 0 0 0 1 3 3 3
0 0 0 0 0 0 0 0 0 0 0 0 0 0 0 0 0 0 0 0 0 0 0 0 0 0 0 0 0 0 0 0 0 0 0 0 0 0 0 1 2 3 2 1
0 0 0 0 0 0 0 0 0 0 0 0 0 0 0 0 0 0 0 0 0 0 0 0 0 0 0 0 0 0 0 0 0 0 0 0 0 0 1 2 2 2 1 0
0 0 0 0 0 0 0 0 0 0 0 0 0 0 0 0 0 0 0 0 0 0 0 0 0 0 0 0 0 0 0 0 0 0 0 0 0 1 2 2 1 1 0 0
0 0 0 0 0 0 0 0 0 0 0 0 0 0 0 0 0 0 0 0 0 0 0 0 0 0 0 0 0 0 0 0 0 0 0 0 0 1 1 1 0 0 0 0
0 0 0 0 0 0 0 0 0 0 0 0 0 0 0 0 0 0 0 0 0 0 0 0 0 0 0 0 0 0 0 0 0 1 1 0 0 0 0 0 0 0 0 0
0 0 0 0 0 0 0 0 0 0 0 0 0 0 0 0 0 0 0 0 0 0 0 0 0 0 0 0 0 0 0 0 0 1 1 0 0 0 0 0 0 0 0 0
0 0 0 0 0 0 0 0 0 0 0 0 0 0 0 0 0 0 0 0 0 0 0 0 0 0 0 0 0 0 0 0 0 1 0 0 0 0 0 0 0 0 0 0
Wind_Speed
8 7 7 7 8 8 8 8 8 6 5 2 1 1 2 3 3 3 3 3 3 3 3 2 2 2 2 2 2 2 2 2 2 2 2 2 2 2 2 1 1 1 1 0
9 9 8 9 8 9 9 8 9 8 6 2 1 2 1 2 3 2 2 2 2 3 3 2 2 2 2 2 3 3 2 2 2 3 2 2 2 2 2 2 1 1 1 1
9 9 9 9 7 8 7 6 6 6 4 1 1 1 1 1 1 1 1 1 1 1 2 2 3 2 2 2 2 3 2 2 2 2 2 2 2 2 2 2 1 1 0 1
7 8 10 4 2 4 6 5 3 2 1 1 1 1 2 2 1 2 2 1 0 1 0 1 2 2 3 2 2 2 2 2 2 3 2 2 2 2 2 2 2 1 1 1
5 7 7 3 2 3 4 4 2 2 1 1 1 1 2 3 2 2 1 1 0 0 0 0 1 2 3 3 2 2 2 2 2 3 3 3 2 2 2 2 2 2 1 1
5 6 6 1 3 4 3 2 3 3 1 1 1 1 0 2 3 2 2 1 1 1 1 0 0 2 3 2 2 2 2 2 2 2 3 3 3 2 2 2 2 2 2 1
7 7 4 2 3 3 1 2 4 4 4 3 2 2 1 2 2 2 2 1 1 1 1 1 1 2 2 2 2 2 2 1 1 2 2 2 2 2 2 2 2 2 2 2
5 6 3 2 2 2 3 4 5 5 4 3 3 2 2 1 1 1 1 1 1 0 0 1 1 1 1 2 1 1 2 2 2 2 2 2 2 2 2 3 3 3 2 2
3 1 2 3 3 4 4 5 5 4 4 3 3 2 2 1 0 0 0 1 1 0 0 1 1 1 1 1 2 2 2 2 2 2 2 2 2 2 2 2 2 2 2 2
3 1 2 3 3 3 4 4 5 4 4 3 2 3 2 2 1 1 1 1 1 1 1 1 1 1 1 1 1 3 3 2 2 2 2 2 2 2 2 2 2 2 2 2
6 4 3 1 2 3 3 3 4 4 3 4 2 2 2 2 2 2 1 1 1 2 2 2 1 2 2 2 2 2 3 2 2 2 2 2 1 1 1 2 3 3 2 2
5 4 4 3 3 3 3 3 4 3 3 3 3 2 2 2 2 2 1 1 2 2 2 2 2 2 2 2 2 2 2 2 2 2 2 2 2 0 1 1 3 4 4 3
5 4 4 4 4 3 3 3 4 3 3 3 3 3 3 3 2 2 2 2 2 2 2 2 1 1 1 2 2 2 2 2 2 2 2 2 2 2 1 1 1 3 4 4
3 3 4 3 3 3 3 4 3 3 3 3 3 3 3 3 3 3 3 2 2 2 1 1 1 1 1 1 1 2 1 2 2 1 1 1 2 2 2 2 2 1 2 4
4 3 3 3 3 4 3 3 3 3 3 3 3 3 3 3 3 3 2 3 2 2 2 2 2 2 1 1 1 1 1 1 1 1 1 1 1 1 1 2 2 2 1 1
3 2 2 3 4 4 4 4 4 4 3 4 4 3 3 3 3 3 3 3 3 2 2 2 2 2 1 1 1 1 1 2 2 2 2 2 2 1 2 2 2 2 3 3
4 4 4 4 4 4 4 4 4 4 4 4 4 3 3 3 3 3 3 4 3 3 2 2 2 1 1 1 2 1 1 2 3 2 2 2 2 2 2 2 2 2 2 3
3 4 4 4 4 4 4 4 4 4 4 3 3 3 3 3 3 3 4 4 3 3 2 2 1 1 1 1 1 1 1 2 2 2 2 2 2 2 2 2 2 2 1 2
2 3 3 4 4 3 3 4 4 4 3 3 3 3 3 3 4 4 4 4 3 3 2 1 1 2 1 1 1 1 1 2 2 1 1 2 2 2 2 2 2 2 2 2
2 3 3 4 4 4 3 4 4 3 3 3 3 3 3 3 3 3 4 3 2 2 2 1 2 1 1 1 2 2 2 2 2 2 1 2 2 2 2 2 2 2 2 2
3 3 3 4 4 3 3 3 3 3 2 2 3 3 3 3 2 2 3 3 2 2 2 2 2 1 0 1 2 2 2 2 2 2 2 2 2 2 2 2 2 2 2 2
3 3 4 4 4 4 3 3 3 3 3 2 2 2 3 2 2 2 2 2 1 2 2 2 1 1 1 2 2 2 2 2 2 2 2 2 2 2 2 2 2 1 1 1
3 4 4 4 4 4 3 3 3 3 2 2 2 2 2 2 1 1 2 2 1 2 3 2 2 2 2 2 2 2 2 2 2 2 2 2 2 2 2 1 1 1 1 1
4 4 4 4 4 4 4 3 3 2 2 1 1 2 2 1 1 1 1 2 3 3 2 1 2 2 3 2 2 2 2 2 1 1 1 1 1 1 1 1 1 1 1 1
4 4 4 4 4 3 3 2 2 2 1 1 1 1 1 1 1 2 2 1 2 2 2 2 2 3 2 2 2 2 2 1 1 1 1 1 1 1 1 1 1 1 1 2
4 3 3 3 3 2 2 2 1 1 1 1 1 1 1 2 2 1 1 1 2 2 2 1 1 2 2 2 2 2 2 2 1 1 1 1 1 1 1 1 2 2 2 2
3 3 2 2 2 2 2 1 1 1 1 1 1 1 1 1 1 1 2 1 1 2 1 1 1 1 1 1 1 1 1 1 1 1 1 1 1 1 1 2 2 2 2 2
Wind_Direction
272 277 277 272 265 261 257 262 267 274 272 242 167 128 125 120 120 126 137 145 146 147 146 145 149 173 163 153 151 155 161 164 151 135 127 131 140 141 128 120 124 124 104 78
270 265 271 272 260 257 251 255 262 270 279 324 126 124 121 128 133 143 154 156 160 163 160 170 179 191 167 160 162 159 159 156 135 131 126 130 137 131 122 121 133 101 118 136
269 267 273 261 258 257 256 252 257 266 282 2 3 85 79 70 126 108 113 109 117 187 188 194 192 189 174 173 159 160 161 152 141 139 144 149 141 128 137 151 150 141 169 179
269 269 254 257 292 276 264 262 284 298 1 354 350 45 73 59 67 72 39 31 32 303 257 212 189 168 156 151 148 157 154 148 137 143 149 144 133 141 167 162 169 181 199 197
254 262 265 259 312 317 282 278 334 319 9 58 61 60 83 61 45 42 17 337 354 333 312 251 191 158 144 151 160 158 157 155 152 153 157 154 157 172 186 173 178 189 206 207
251 260 264 339 19 341 299 267 7 0 26 72 78 286 7 59 45 45 28 17 9 341 329 199 117 117 132 156 161 162 162 162 159 160 160 167 176 182 192 185 187 189 196 207
251 256 265 10 8 346 263 359 12 18 21 13 347 356 30 69 51 40 28 9 359 341 352 100 117 119 149 171 179 168 145 144 157 164 166 172 176 183 190 196 193 192 190 203
250 251 253 52 34 1 3 18 19 14 12 13 18 30 31 37 42 26 20 6 328 319 45 104 129 137 161 196 168 129 131 159 173 181 182 165 170 197 199 196 198 199 196 209
262 270 26 31 27 13 11 360 2 3 4 7 4 3 357 346 339 346 329 295 277 222 218 178 162 157 193 205 159 149 160 193 191 189 180 170 174 192 200 197 201 203 201 210
281 281 328 355 3 12 9 355 349 358 2 358 350 326 335 329 320 290 272 267 255 216 227 226 186 174 201 206 183 172 179 196 194 184 170 173 180 187 194 198 205 211 209 212
277 285 304 318 346 351 347 339 337 345 348 337 316 310 315 308 298 278 267 268 263 246 241 239 198 186 202 208 209 199 190 191 193 189 178 182 181 197 208 202 196 205 218 211
271 290 294 301 316 321 326 327 328 334 335 328 321 308 302 293 292 294 287 275 259 253 243 243 223 216 205 203 207 205 208 197 190 184 181 175 165 177 338 223 202 206 214 208
284 297 307 315 316 317 315 319 321 321 320 319 320 314 308 309 308 302 297 289 274 249 240 244 240 247 223 196 200 210 213 200 184 178 180 183 180 185 227 297 241 220 211 206
296 288 282 286 296 307 312 314 314 316 320 320 319 316 314 311 307 305 306 301 294 281 260 250 242 250 261 204 192 209 218 209 184 176 179 190 198 199 203 222 234 239 219 206
283 281 280 295 296 293 296 299 299 304 318 323 319 311 306 301 299 300 300 295 280 277 287 279 262 250 249 218 205 208 205 193 178 174 181 198 212 211 209 228 234 221 189 202
286 274 262 263 268 279 286 287 288 294 304 308 306 307 307 301 303 308 301 291 278 272 271 272 268 263 232 203 208 214 207 207 199 191 193 205 206 216 228 236 237 220 206 196
271 267 269 271 272 277 284 288 291 295 295 292 296 303 304 301 297 297 291 285 281 277 275 270 265 268 256 218 215 213 204 206 210 211 206 207 209 218 226 235 238 232 221 199
272 277 279 282 283 280 282 286 288 290 289 294 299 303 301 296 292 291 292 288 283 276 274 266 262 260 257 234 232 221 210 213 213 212 206 215 234 231 229 237 245 237 231 199
304 298 298 297 295 283 276 282 286 291 297 297 293 292 293 293 297 298 296 295 295 292 289 272 285 258 265 279 287 248 227 221 216 214 211 231 243 246 238 240 246 236 215 198
291 294 295 295 294 291 288 288 289 293 297 295 290 286 292 297 300 302 300 299 300 296 307 329 283 270 252 248 284 256 237 230 219 218 224 227 234 244 242 247 246 234 224 209
274 278 283 289 291 289 285 284 284 282 284 286 287 291 295 299 299 300 302 306 328 351 332 309 288 283 276 292 273 256 240 235 230 223 228 235 237 242 247 243 237 240 240 231
274 276 280 282 283 283 281 281 281 281 281 279 283 295 305 305 304 302 303 300 334 357 328 298 299 332 316 308 262 252 245 247 246 235 234 234 234 242 249 244 239 244 244 239
281 275 277 278 278 279 280 276 273 276 274 282 292 298 300 302 299 299 309 328 351 333 314 303 318 313 304 287 270 262 252 249 251 248 241 240 246 251 250 247 248 245 235 235
285 282 282 284 283 276 270 268 273 274 277 287 292 304 309 310 320 346 357 339 342 330 314 309 317 305 301 281 274 273 267 261 253 249 251 251 249 254 255 249 247 248 242 244
289 288 287 282 276 273 278 283 282 278 278 286 296 330 340 355 350 346 336 333 341 329 318 305 303 298 289 278 277 277 272 260 260 259 248 238 233 237 245 249 242 240 244 242
289 288 285 284 286 285 280 276 276 279 285 309 344 16 16 16 0 340 327 328 330 323 316 297 283 272 274 287 296 295 289 291 287 269 251 250 243 243 241 244 256 247 240 239
284 283 285 284 282 276 273 268 266 286 335 1 358 5 357 346 336 338 350 352 341 330 331 327 321 319 319 315 309 306 307 310 311 311 300 281 274 273 265 262 258 254 247 240